EW3836 Weather Reports


Display with metric or nautical units.
time (UTC)temp
F
wind
direction
speed
MPH
gust
MPH
rain 1hr
in
rain 24hr
in
rain mn
in
humidity
%
barometer
mb
20260508141559 52 201 0.0 0.0 0.00 0.00 0.00 53 1013.5
20260508140110 51 170 0.0 0.0 0.00 0.00 0.00 52 1013.2
20260508134616 51 183 0.0 0.0 0.00 0.00 0.00 54 1013.2
20260508133110 50 192 0.0 0.0 0.00 0.00 0.00 53 1013.1
20260508131553 50 220 0.0 0.0 0.00 0.00 0.00 50 1013.3
20260508130050 50 239 0.0 0.0 0.00 0.00 0.00 46 1013.3
20260508124547 51 245 0.0 0.0 0.00 0.00 0.00 41 1013.2
20260508123047 51 227 0.0 0.0 0.00 0.00 0.00 38 1013.1
20260508121543 51 228 0.0 0.0 0.00 0.00 0.00 35 1013.1
20260508120048 51 239 0.0 0.0 0.00 0.00 0.00 33 1013.1
20260508114539 50 171 0.0 0.0 0.00 0.00 0.00 32 1013.0
20260508113044 52 205 0.0 0.0 0.00 0.00 0.00 31 1013.0
20260508111535 52 199 0.0 0.0 0.00 0.00 0.00 29 1012.8
20260508110033 51 146 0.0 0.0 0.00 0.00 0.00 28 1012.6
20260508104530 52 156 0.0 0.0 0.00 0.00 0.00 26 1012.4
20260508103029 52 159 0.0 0.0 0.00 0.00 0.00 28 1012.4
20260508101527 52 194 0.0 0.0 0.00 0.00 0.00 28 1012.5
20260508100026 52 205 0.0 0.0 0.00 0.00 0.00 27 1012.5
20260508094525 51 188 0.0 0.0 0.00 0.00 0.00 27 1012.7
20260508093023 52 171 0.0 0.0 0.00 0.00 0.00 27 1012.5
20260508091529 52 175 0.0 0.0 0.00 0.00 0.00 26 1012.6
20260508090018 53 196 0.0 0.0 0.00 0.00 0.00 25 1012.6
20260508084516 53 221 0.0 0.0 0.00 0.00 0.00 26 1012.7
20260508083024 52 188 0.0 0.0 0.00 0.00 0.00 28 1012.7
20260508081511 53 217 0.0 0.0 0.00 0.00 0.00 30 1012.8
20260508080008 53 190 0.0 0.0 0.00 0.00 0.00 32 1012.8
20260508074507 54 190 0.0 0.0 0.00 0.00 0.00 32 1012.7
20260508073004 53 201 0.0 0.0 0.00 0.00 0.00 34 1012.7
20260508071503 54 233 0.0 0.0 0.00 0.00 0.00 33 1012.6
20260508064559 54 215 0.0 0.0 0.00 0.00 0.00 36 1012.6
20260508063138 55 225 0.0 0.0 0.00 0.00 0.00 38 1012.5
20260508061557 55 205 0.0 0.0 0.00 0.00 0.00 37 1012.5
20260508060058 56 225 0.0 0.0 0.00 0.00 0.00 36 1012.4
20260508054556 57 219 0.0 0.0 0.00 0.00 0.00 34 1012.3
20260508053101 57 188 0.0 0.0 0.00 0.00 0.00 34 1012.2
20260508051618 57 184 0.0 0.0 0.00 0.00 0.00 34 1012.2
20260508050055 58 162 0.0 0.0 0.00 0.00 0.00 34 1012.2
20260508044653 58 175 0.0 0.0 0.00 0.00 0.00 34 1012.2
20260508043052 56 153 0.0 0.0 0.00 0.00 0.00 37 1012.1
20260508041552 56 150 0.0 0.0 0.00 0.00 0.00 37 1012.1
20260508040051 56 126 0.0 0.0 0.00 0.00 0.00 39 1012.1
20260508034551 58 128 0.0 0.0 0.00 0.00 0.00 40 1012.0
20260508033052 59 209 0.0 0.0 0.00 0.00 0.00 37 1012.0
20260508031549 60 278 0.0 0.0 0.00 0.00 0.00 32 1011.9
20260508030049 61 287 0.0 0.0 0.00 0.00 0.00 34 1011.8
20260508024548 61 294 0.0 0.0 0.00 0.00 0.00 34 1011.7
20260508023048 62 295 0.0 0.0 0.00 0.00 0.00 36 1011.7
20260508021555 62 298 0.0 0.0 0.00 0.00 0.00 36 1011.7
20260508020053 63 273 0.0 0.0 0.00 0.00 0.00 33 1011.7
20260508014545 64 264 0.0 0.0 0.00 0.00 0.00 30 1011.5
20260508013044 63 258 0.0 0.0 0.00 0.00 0.00 34 1011.5
20260508011549 64 265 0.0 0.0 0.00 0.00 0.00 31 1011.6
20260508010057 64 246 0.0 0.0 0.00 0.00 0.00 32 1011.7
20260508004542 64 234 0.0 0.0 0.00 0.00 0.00 30 1011.7
20260508003040 65 246 0.0 0.0 0.00 0.00 0.00 28 1011.8
20260508001536 65 296 0.0 0.0 0.00 0.00 0.00 27 1011.9
20260508000033 64 259 0.0 0.0 0.00 0.00 0.00 32 1012.0
20260507234527 65 239 0.0 0.0 0.00 0.00 0.00 30 1012.0
20260507233027 65 305 0.0 0.0 0.00 0.00 0.00 31 1012.0
20260507231521 64 245 0.0 0.0 0.00 0.00 0.00 32 1012.2
20260507230027 64 265 0.0 0.0 0.00 0.00 0.00 36 1012.2
20260507224517 64 250 0.0 0.0 0.00 0.00 0.00 38 1012.4
20260507223021 64 245 0.0 0.0 0.00 0.00 0.00 37 1012.6
20260507221512 63 291 0.0 0.0 0.00 0.00 0.00 37 1012.6
20260507220011 64 271 0.0 0.0 0.00 0.00 0.00 40 1012.8
20260507214506 63 243 0.0 0.0 0.00 0.00 0.00 45 1012.9
20260507213005 62 288 0.0 0.0 0.00 0.00 0.00 44 1013.0
20260507211503 62 292 0.0 0.0 0.00 0.00 0.00 45 1013.1
20260507210105 62 289 0.0 0.0 0.00 0.00 0.00 49 1013.1
20260507204557 61 269 0.0 0.0 0.00 0.00 0.00 50 1013.1
20260507203056 60 268 0.0 0.0 0.00 0.00 0.00 49 1013.2
20260507201605 60 273 0.0 0.0 0.00 0.00 0.00 49 1013.3
20260507200104 60 257 0.0 0.0 0.00 0.00 0.00 52 1013.4
20260507194549 59 214 0.0 0.0 0.00 0.00 0.00 54 1013.4
20260507193050 59 261 0.0 0.0 0.00 0.00 0.00 55 1013.3
20260507191545 58 227 0.0 0.0 0.00 0.00 0.00 53 1013.5
20260507190049 58 221 0.0 0.0 0.00 0.00 0.00 55 1013.6
20260507184540 57 243 0.0 0.0 0.00 0.00 0.00 60 1013.5
20260507183040 57 236 0.0 0.0 0.00 0.00 0.00 59 1013.6
20260507181535 56 254 0.0 0.0 0.00 0.00 0.00 63 1013.6
20260507180132 56 284 0.0 0.0 0.00 0.00 0.00 64 1013.6
20260507174528 55 219 0.0 0.0 0.00 0.00 0.00 64 1013.7
20260507173026 55 244 0.0 0.0 0.00 0.00 0.00 65 1013.8
20260507171524 54 259 0.0 0.0 0.00 0.00 0.00 66 1013.8
20260507170026 53 255 0.0 0.0 0.00 0.00 0.00 68 1013.9
20260507164523 53 245 0.0 0.0 0.00 0.00 0.00 71 1013.7
20260507163024 52 278 0.0 0.0 0.00 0.00 0.00 72 1013.7
20260507161529 52 249 0.0 0.0 0.00 0.00 0.00 74 1013.5
20260507160020 51 275 0.0 0.0 0.00 0.00 0.00 72 1013.7
20260507154522 50 244 0.0 0.0 0.00 0.00 0.00 76 1013.5
20260507153022 49 228 0.0 0.0 0.00 0.00 0.00 77 1013.5
20260507151518 48 245 0.0 0.0 0.00 0.00 0.00 78 1013.5
20260507150017 48 290 0.0 0.0 0.00 0.00 0.00 78 1013.3
20260507144518 49 271 0.0 0.0 0.00 0.00 0.00 77 1013.2
20260507143012 49 277 0.0 0.0 0.00 0.00 0.00 77 1013.0